MST,Max TemperatureF,Mean TemperatureF,Min TemperatureF,Max Dew PointF,MeanDew PointF,Min DewpointF,Max Humidity, Mean Humidity, Min Humidity, Max Sea Level PressureIn, Mean Sea Level PressureIn, Min Sea Level PressureIn, Max VisibilityMiles, Mean VisibilityMiles, Min VisibilityMiles, Max Wind SpeedMPH, Mean Wind SpeedMPH, Max Gust SpeedMPH,PrecipitationIn, CloudCover, Events, WindDirDegrees
2013-2-1,30,21,11,20,16,8,92,78,63,30.44,30.24,30.12,,,,16,5,26,0.05,,,277
2013-2-2,28,22,16,19,17,15,88,81,74,30.57,30.49,30.43,,,,8,1,13,0.00,,,290
2013-2-3,28,17,6,17,10,4,92,77,62,30.42,30.33,30.22,,,,7,0,14,0.00,,,120
2013-2-4,27,19,10,20,16,8,92,80,68,30.25,30.16,30.10,,,,13,2,21,0.00,,,280
2013-2-5,35,26,16,22,19,12,92,73,54,30.12,30.02,29.93,,,,10,1,18,0.05,,,-1
2013-2-6,29,18,6,17,9,3,92,69,46,30.35,30.11,29.94,,,,14,2,24,0.00,,,282
2013-2-7,25,16,6,12,8,3,88,67,45,30.35,30.18,30.06,,,,6,1,10,0.00,,,108
2013-2-8,33,18,2,12,5,-1,95,66,36,30.11,29.97,29.83,,,,7,1,13,0.00,,,80
2013-2-9,29,21,13,12,8,6,80,60,39,29.83,29.78,29.72,,,,9,3,22,0.00,,,4
2013-2-10,18,3,-13,8,-1,-18,83,63,43,30.33,30.07,29.84,,,,12,4,21,0.00,,,324
2013-2-11,14,-6,-26,0,-14,-31,83,66,48,30.54,30.43,30.32,,,,5,1,9,0.00,,,117
2013-2-12,21,8,-5,13,6,-6,88,78,67,30.45,30.37,30.29,,,,7,1,14,0.03,,,-1
2013-2-13,27,22,16,17,15,13,92,80,68,30.28,30.18,30.13,,,,14,5,28,0.01,,,273
2013-2-14,25,15,4,16,11,3,92,71,50,30.44,30.33,30.16,,,,13,5,18,0.06,,,283
2013-2-15,28,14,0,15,10,-4,92,74,55,30.68,30.51,30.38,,,,12,3,18,0.00,,,278
2013-2-16,29,21,13,19,16,11,88,76,63,30.47,30.30,30.03,,,,10,1,18,0.00,,,220
2013-2-17,24,14,4,17,10,0,91,73,54,30.09,29.91,29.76,,,,13,3,22,0.17,,,292
2013-2-18,23,8,-8,8,2,-12,88,67,45,30.27,30.18,30.09,,,,7,1,15,0.02,,,63
2013-2-19,29,10,-10,13,-1,-14,95,71,46,30.19,30.03,29.87,,,,9,1,15,0.00,,,278
2013-2-20,32,16,-1,21,8,-5,91,69,47,29.89,29.82,29.73,,,,9,1,15,0.07,,,120
2013-2-21,25,11,-3,11,4,-7,91,69,47,30.17,29.98,29.80,,,,13,1,17,0.01,,,110
2013-2-22,21,9,-4,13,4,-9,88,69,49,30.24,30.10,29.92,,,,12,2,22,0.05,,,288
2013-2-23,25,11,-3,17,11,-7,91,82,73,30.09,29.84,29.70,,,,14,3,25,0.23,,,293
2013-2-24,24,6,-12,7,-5,-17,91,67,43,30.49,30.34,30.12,,,,12,0,18,0.00,,,310
2013-2-25,19,4,-11,11,3,-14,92,80,67,30.44,30.23,30.09,,,,8,1,13,0.06,,,240
2013-2-26,22,8,-7,13,2,-11,91,71,51,30.53,30.28,30.07,,,,10,1,17,0.06,,,-1
2013-2-27,25,11,-4,11,4,-3,92,74,55,30.57,30.48,30.39,,,,8,1,14,0.00,,,-1
2013-2-28,25,9,-8,15,6,-12,95,78,60,30.60,30.55,30.50,,,,10,2,15,0.05,,,321